This is the latest recevied weather packets stored in our database for station/object IU2PLZ-10. If no packets are shown the sender has not sent any weather packets the latest 10 day(s).
| Time | Temp. | Humidity | Pressure | Rain* | Wind** | Luminosity | Snow |
|---|---|---|---|---|---|---|---|
| 1788521073 | 42.22° C | 26% | 969.5 hPa | - | - | - | - |
| 1788520173 | 41.67° C | 23% | 968.8 hPa | - | - | - | - |
| 1788519273 | 42.22° C | 25% | 969.7 hPa | - | - | - | - |
| 1788518372 | 42.78° C | 25% | 969.7 hPa | - | - | - | - |
| 1788517472 | 42.78° C | 26% | 969 hPa | - | - | - | - |
| 1788516572 | 42.78° C | 29% | 969.1 hPa | - | - | - | - |
| 1788515672 | 41.67° C | 30% | 969.1 hPa | - | - | - | - |
| 1788514772 | 41.67° C | 31% | 969.9 hPa | - | - | - | - |
| 1788513872 | 40.56° C | 33% | 969.9 hPa | - | - | - | - |
| 1788512071 | 38.89° C | 34% | 969.8 hPa | - | - | - | - |
| 1788511171 | 37.78° C | 36% | 968.9 hPa | - | - | - | - |
| 1788510271 | 37.78° C | 35% | 968.7 hPa | - | - | - | - |
| 1788509376 | 36.67° C | 38% | 968.6 hPa | - | - | - | - |
| 1788508494 | 36.11° C | 42% | 969.3 hPa | - | - | - | - |
| 1788507570 | 35° C | 45% | 968.4 hPa | - | - | - | - |
| 1788506670 | 33.89° C | 48% | 968.3 hPa | - | - | - | - |
| 1788505770 | 33.33° C | 48% | 967.9 hPa | - | - | - | - |
| 1788504870 | 32.78° C | 50% | 967.8 hPa | - | - | - | - |
| 1788503970 | 32.78° C | 53% | 968.5 hPa | - | - | - | - |
| 1788502170 | 31.67° C | 58% | 968.5 hPa | - | - | - | - |
| 1788501269 | 30.56° C | 60% | 968.5 hPa | - | - | - | - |
| 1788499469 | 28.89° C | 66% | 968.3 hPa | - | - | - | - |
| 1788498569 | 27.22° C | 69% | 967.5 hPa | - | - | - | - |
| 1788497669 | 27.22° C | 71% | 968.2 hPa | - | - | - | - |
| 1788496769 | 27.22° C | 72% | 968.1 hPa | - | - | - | - |
* Rain since midnight (hover to see other rain measurements)
** Current wind speed in m/s (hover to see current wind gust speed)